Flag for Germany Weather past 2 weeks in Georgsmarienhütte, Lower Saxony, Germany

46 °F

Passing clouds.

Feels Like: 42 °F
Forecast: 46 / 50 °F
Wind: 8 mph from West

Location: Muenster / Osnabrueck

Current Time: Dec 1, 2015 at 5:29:05 AM

Latest Report: Dec 1, 2015 at 4:20 AM

Visibility: N/A

Pressure: 30.07 "Hg

Humidity: 82%

Dew point: 41 °F

Location of GeorgsmarienhütteLocation

Historic Weather in Georgsmarienhütte — Graph


Georgsmarienhütte temperature yesterday

Maximum temperature yesterday: 54 °F (at 11:20 PM)
Minimum temperature yesterday: 43 °F (at 1:20 PM)
Average temperature yesterday: 47 °F

Past Weeks' High & Low Weather Summary

High61 °F (Nov 17, 9:50 PM)100% (Nov 17, 1:20 AM)30.21 "Hg (Nov 17, 1:20 AM)
Low28 °F (Nov 27, 12:20 AM)57% (Nov 24, 12:20 PM)29.36 "Hg (Nov 21, 3:50 AM)
Average44 °F84%29.80 "Hg
* Reported Nov 16 3:20 AM — Dec 1 3:50 AM, Georgsmarienhütte, Weather by CustomWeather, © 2015

Note: Actual official high and low records may vary slightly from our data, if they occured in-between our weather recording intervals... More about our weather records


Georgsmarienhütte weather history for previous 24 hours

Time TempWeatherWind HumidityBarometerVisibility
3:50 AM
Tue, Dec 1
46 °FPassing clouds.8 mph82%30.04 "HgN/A
3:20 AM46 °FPassing clouds.7 mph82%30.01 "HgN/A
2:50 AM46 °FPassing clouds.13 mph82%30.01 "HgN/A
1:50 AM46 °FPassing clouds.9 mph87%29.95 "HgN/A
12:50 AM50 °FPartly cloudy.17 mph82%29.89 "HgN/A
12:20 AM52 °FPartly cloudy.18 mph82%29.86 "HgN/A
11:20 PM
Mon, Nov 30
54 °FLight rain. Passing clouds.26 mph88%29.80 "Hg5 mi
10:50 PM52 °FLight rain. Passing clouds.24 mph94%29.80 "Hg5 mi
10:20 PM52 °FLight rain. Passing clouds.25 mph94%29.77 "Hg5 mi
9:50 PM52 °FLight rain. Passing clouds.28 mph94%29.77 "Hg5 mi
9:20 PM52 °FLight rain. Passing clouds.24 mph94%29.74 "HgN/A
8:50 PM52 °FRain. Passing clouds.23 mph94%29.74 "Hg6 mi
8:20 PM50 °FLight rain. Passing clouds.22 mph94%29.74 "HgN/A
7:50 PM52 °FLight rain. Passing clouds.22 mph88%29.74 "HgN/A
7:20 PM50 °FLight rain. Passing clouds.18 mph94%29.74 "HgN/A
6:50 PM50 °FLight rain. Passing clouds.21 mph94%29.74 "HgN/A
6:20 PM50 °FLight rain. Passing clouds.18 mph94%29.77 "Hg5 mi
5:50 PM50 °FLight rain. Passing clouds.17 mph94%29.77 "Hg6 mi
5:20 PM50 °FLight rain. Partly cloudy.20 mph88%29.77 "HgN/A
4:50 PM50 °FLight rain. Partly cloudy.16 mph94%29.80 "HgN/A
4:20 PM50 °FLight rain. Broken clouds.20 mph88%29.80 "Hg6 mi
3:50 PM46 °FLight rain. Partly sunny.10 mph93%29.83 "Hg4 mi
3:20 PM43 °FLight rain. Fog.8 mph100%29.83 "Hg3 mi
2:50 PM43 °FLight rain. Partly sunny.7 mph93%29.86 "Hg6 mi
2:20 PM43 °FLight rain. Partly sunny.5 mph87%29.89 "HgN/A
1:50 PM43 °FLight rain. Partly sunny.5 mph81%29.92 "HgN/A
1:20 PM43 °FLight rain. Broken clouds.10 mph81%29.95 "HgN/A
12:50 PM45 °FLight rain. Partly sunny.16 mph71%29.98 "HgN/A
12:20 PM45 °FLight rain. Broken clouds.10 mph71%30.01 "HgN/A
11:50 AM45 °FBroken clouds.9 mph66%30.01 "HgN/A
11:20 AM45 °FBroken clouds.13 mph66%30.01 "HgN/A
10:50 AM45 °FPartly sunny.14 mph66%30.01 "HgN/A
10:20 AM45 °FPartly sunny.13 mph66%30.01 "HgN/A
9:50 AM45 °FPartly sunny.14 mph66%30.04 "HgN/A
9:20 AM45 °FPartly sunny.13 mph66%30.04 "HgN/A
7:50 AM45 °FPassing clouds.18 mph71%30.01 "HgN/A
7:20 AM45 °FClear.17 mph71%29.98 "Hg10 mi
6:20 AM45 °FClear.17 mph66%29.95 "Hg10 mi
5:50 AM45 °FClear.20 mph66%29.92 "Hg10 mi
5:20 AM45 °FClear.26 mph71%29.92 "Hg10 mi
Weather by CustomWeather, © 2015

See weather overviewHow to use our weather pages